Tampa, FL

5:09 AM EDT on June 25, 2017 (GMT -0400)
Tampa International

Weather History for KTPA - August, 2013

Change the Weather History Date:

Saturday, August 31, 2013

  Actual Average Record
Temperature  
Mean Temperature 82 °F 83 °F  
Max Temperature 88 °F 90 °F 95 °F (1947)
Min Temperature 75 °F 76 °F 69 °F (1935)
Degree Days  
Heating Degree Days 0 0  
Month to date heating degree days 0 0  
Since 1 June heating degree days 0 0  
Since 1 July heating degree days 0 0  
Cooling Degree Days 17 18  
Month to date cooling degree days 590 564  
Year to date cooling degree days 2637 2515  
Since 1 June cooling degree days 1662 1638  
Growing Degree Days 32 (Base 50)    
Moisture  
Dew Point 73 °F    
Average Humidity 74    
Maximum Humidity 91    
Minimum Humidity 57    
Precipitation  
Precipitation 0.25 in 0.25 in 4.04 in (2016)
Month to date precipitation 11.91 7.77  
Year to date precipitation 42.52 33.72  
Sea Level Pressure  
Sea Level Pressure 29.96 in    
Wind  
Wind Speed 4 mph (WSW)    
Max Wind Speed 17 mph    
Max Gust Speed 24 mph    
Visibility 9 miles    
Events Rain    
T = Trace of Precipitation, MM = Missing Value Source: NWS Daily Summary

Daily Weather History Graph

Daily Weather History Graph

Search for Another Location

Airport or City:

Trip Planner

Search our weather history database for the weather conditions in past years. The results will help you decide how hot, cold, wet, or windy it might be!

Date:

Astronomy

Aug. 31, 2013 Rise Set
Actual Time 7:08 AM EDT 7:51 PM EDT
Civil Twilight 6:44 AM EDT 8:15 PM EDT
Nautical Twilight 6:16 AM EDT 8:43 PM EDT
Astronomical Twilight 5:47 AM EDT 9:12 PM EDT
Moon 2:50 AM EDT (8/31) 4:36 PM EDT (8/31)
Length of Visible Light 13h 31m
Length of Day
12h 43m
Waning Crescent, 21% of the Moon is Illuminated
Aug 31
Waning Crescent
Sep 5
New
Sep 12
First Quarter
Sep 19
Full
Sep 26
Last Quarter

Hourly Weather History & Observations

Time (EDT) Temp. Heat Index Dew Point Humidity Pressure Visibility Wind Dir Wind Speed Gust Speed Precip Events Conditions
12:53 AM 82.0 °F 87.4 °F 73.0 °F 74% 29.95 in 10.0 mi Calm Calm - N/A   Scattered Clouds
1:53 AM 81.0 °F 87.3 °F 75.9 °F 85% 29.92 in 10.0 mi Calm Calm - N/A   Scattered Clouds
2:53 AM 81.0 °F 86.2 °F 73.9 °F 79% 29.91 in 10.0 mi SSE 3.5 mph - N/A   Scattered Clouds
3:53 AM 81.0 °F 86.2 °F 73.9 °F 79% 29.91 in 10.0 mi SSE 3.5 mph - N/A   Scattered Clouds
4:53 AM 80.1 °F 84.2 °F 73.0 °F 79% 29.91 in 10.0 mi SSE 4.6 mph - N/A   Partly Cloudy
5:53 AM 78.1 °F - 73.9 °F 87% 29.92 in 10.0 mi SSE 3.5 mph - N/A   Partly Cloudy
6:53 AM 79.0 °F - 75.0 °F 88% 29.94 in 10.0 mi Variable 3.5 mph - N/A   Scattered Clouds
7:53 AM 79.0 °F - 75.9 °F 90% 29.95 in 10.0 mi SE 3.5 mph - N/A   Mostly Cloudy
8:53 AM 81.0 °F 87.3 °F 75.9 °F 85% 29.97 in 10.0 mi Variable 4.6 mph - N/A   Scattered Clouds
9:23 AM 78.8 °F - 73.4 °F 83% 29.99 in 10.0 mi West 17.3 mph 24.2 mph N/A   Mostly Cloudy
9:37 AM 75.2 °F - 73.4 °F 94% 30.00 in 10.0 mi WSW 13.8 mph - 0.00 in Rain Light Rain
9:45 AM 75.2 °F - 73.4 °F 94% 30.00 in 1.5 mi WSW 13.8 mph 20.7 mph 0.02 in Rain Rain
9:51 AM 75.2 °F - 73.4 °F 94% 30.00 in 1.5 mi West 13.8 mph - 0.09 in Rain Rain
9:53 AM 75.0 °F - 73.0 °F 94% 30.01 in 1.5 mi West 12.7 mph - 0.12 in Rain Rain
10:05 AM 75.2 °F - 73.4 °F 94% 30.00 in 1.5 mi WNW 5.8 mph - 0.06 in Rain Light Rain
10:16 AM 75.2 °F - 73.4 °F 94% 30.00 in 6.0 mi WNW 5.8 mph - 0.11 in Rain Light Rain
10:53 AM 79.0 °F - 73.9 °F 84% 30.01 in 10.0 mi Calm Calm - 0.13 in   Mostly Cloudy
11:53 AM 82.9 °F 87.5 °F 71.1 °F 67% 30.01 in 10.0 mi Variable 4.6 mph - N/A   Mostly Cloudy
12:53 PM 84.0 °F 89.0 °F 71.1 °F 65% 29.99 in 10.0 mi WSW 4.6 mph - N/A   Scattered Clouds
1:53 PM 86.0 °F 90.7 °F 70.0 °F 59% 29.98 in 10.0 mi WSW 5.8 mph - N/A   Scattered Clouds
2:53 PM 86.0 °F 92.2 °F 72.0 °F 63% 29.96 in 10.0 mi WSW 3.5 mph - N/A   Scattered Clouds
3:53 PM 86.0 °F 92.2 °F 72.0 °F 63% 29.94 in 10.0 mi West 9.2 mph - N/A   Scattered Clouds
4:53 PM 86.0 °F 93.0 °F 73.0 °F 65% 29.91 in 10.0 mi West 11.5 mph - N/A   Mostly Cloudy
5:53 PM 86.0 °F 93.0 °F 73.0 °F 65% 29.92 in 10.0 mi West 8.1 mph - N/A   Scattered Clouds
6:53 PM 84.9 °F 90.1 °F 71.1 °F 63% 29.92 in 10.0 mi West 6.9 mph - N/A   Scattered Clouds
7:53 PM 84.0 °F 89.0 °F 71.1 °F 65% 29.93 in 10.0 mi West 5.8 mph - N/A   Scattered Clouds
8:53 PM 82.0 °F 86.3 °F 71.1 °F 69% 29.94 in 10.0 mi NW 3.5 mph - N/A   Scattered Clouds
9:53 PM 82.0 °F 87.4 °F 73.0 °F 74% 29.98 in 10.0 mi NNW 3.5 mph - N/A   Scattered Clouds
10:53 PM 81.0 °F 86.2 °F 73.9 °F 79% 29.98 in 10.0 mi Calm Calm - N/A   Scattered Clouds
11:53 PM 82.0 °F 87.4 °F 73.0 °F 74% 29.98 in 10.0 mi Calm Calm - N/A   Mostly Cloudy